Location: Molalla
(45.1473°N, 122.5770°W)
Time: 10:30:44
(UTC-08:00)

S-56A Canister/Altair - All Passes

Search period start: 13 November 2019 00:00
Search period end: 23 November 2019 00:00
Orbit: 634 x 2498 km, 38.9° (Epoch: 13 November)

Date Brightness Start Highest point End Pass type
(mag) Time Alt. Az. Time Alt. Az. Time Alt. Az.
13 Nov - 16:31:06 10° SSE 16:33:11 11° SSE 16:35:07 10° SE daylight
13 Nov - 18:30:29 10° SW 18:36:53 28° SSE 18:41:39 10° ESE visible
13 Nov - 20:34:30 10° WSW 20:40:20 43° S 20:44:49 10° ESE visible
13 Nov - 22:39:03 10° WSW 22:43:26 31° SSW 22:47:20 10° SE night (unlit)
14 Nov - 15:59:24 10° SSE 16:00:24 10° SE 16:01:22 10° SE daylight
14 Nov - 17:57:24 10° SSW 18:04:12 27° SSE 18:09:13 10° ESE visible
14 Nov - 20:01:26 10° WSW 20:07:46 43° S 20:12:27 10° ESE visible
14 Nov - 22:06:10 10° W 22:10:57 34° SSW 22:15:01 10° SE night (unlit)
15 Nov - 00:12:03 10° SW 00:13:37 12° SSW 00:15:11 10° S night (unlit)
15 Nov - 17:24:17 10° SSW 17:31:28 27° SSE 17:36:46 10° ESE visible
15 Nov - 19:28:16 10° WSW 19:35:11 44° S 19:40:07 10° ESE visible
15 Nov - 21:33:12 10° W 21:38:28 38° SSW 21:42:42 10° SE visible
15 Nov - 23:38:45 10° WSW 23:41:09 14° SSW 23:43:29 10° S night (unlit)
16 Nov - 16:51:09 10° SSW 16:58:42 26° SSE 17:04:17 10° ESE daylight
16 Nov - 18:55:02 10° WSW 19:02:33 44° S 19:07:46 10° E visible
16 Nov - 21:00:09 10° W 21:05:58 41° S 21:10:24 10° ESE visible
16 Nov - 23:05:35 10° WSW 23:08:42 17° SSW 23:11:35 10° S night (unlit)
17 Nov - 16:18:02 10° SSW 16:25:53 25° SSE 16:31:44 10° ESE daylight
17 Nov - 18:21:44 10° WSW 18:29:51 44° S 18:35:25 10° E visible
17 Nov - 20:27:00 10° W 20:33:24 45° S 20:38:07 10° ESE visible
17 Nov - 22:32:28 10° WSW 22:36:15 20° SSW 22:39:35 10° SSE night (unlit)
18 Nov - 15:44:54 10° SSW 15:53:00 24° SSE 15:59:08 10° ESE daylight
18 Nov - 17:48:23 10° SW 17:57:06 43° SSE 18:03:03 10° E visible
18 Nov - 19:53:46 10° WSW 20:00:50 48° S 20:05:49 10° ESE visible
18 Nov - 21:59:19 10° W 22:03:48 24° SSW 22:07:32 10° SSE visible
19 Nov - 15:11:50 10° SSW 15:20:05 23° SSE 15:26:27 10° ESE daylight
19 Nov - 17:14:58 10° SW 17:24:18 43° SSE 17:30:39 10° E visible
19 Nov - 19:20:27 10° WSW 19:28:11 50° S 19:33:31 10° ESE visible
19 Nov - 21:26:09 10° W 21:31:19 28° SSW 21:35:26 10° SSE visible
20 Nov - 14:38:48 10° S 14:47:08 22° SSE 14:53:40 10° ESE daylight
20 Nov - 16:41:32 10° SW 16:51:27 42° SSE 16:58:13 10° E daylight
20 Nov - 18:47:03 10° WSW 18:55:30 53° S 19:01:12 10° ESE visible
20 Nov - 20:52:54 10° W 20:58:49 33° SSW 21:03:18 10° SE visible
21 Nov - 14:05:52 10° S 14:14:08 20° SE 14:20:47 10° ESE daylight
21 Nov - 16:08:05 10° SW 16:18:32 41° SSE 16:25:45 10° E daylight
21 Nov - 18:13:35 10° WSW 18:22:46 54° S 18:28:52 10° ESE visible
21 Nov - 20:19:36 10° W 20:26:17 38° SSW 20:31:07 10° SE visible
21 Nov - 22:27:30 10° SW 22:28:39 11° SW 22:29:46 10° SSW night (unlit)
22 Nov - 13:33:02 10° S 13:41:06 19° SE 13:47:47 10° ESE daylight
22 Nov - 15:34:38 10° SW 15:45:34 40° SSE 15:53:13 10° E daylight
22 Nov - 17:40:02 10° WSW 17:49:58 55° S 17:56:30 10° ESE visible
22 Nov - 19:46:13 10° W 19:53:42 42° SSW 19:58:55 10° SE visible
22 Nov - 21:53:14 10° WSW 21:56:13 14° SW 21:58:52 10° S visible
